Regional Weather Roundup
Issued by NWS

Home | Current Version | Previous Version | Graphics & Text | Print | Product List | Glossary Off
Versions: 1 2 3 4 5 6 7 8 9 10 11 12 13 14 15 16 17 18 19 20 21 22 23 24 25 26 27 28 29 30 31 32 33 34 35 36 37 38 39 40 41 42 43 44 45 46 47 48 49 50

456
ASUS43 KMKX 280000
RWRWI

WISCONSIN REGIONAL WEATHER ROUNDUP
NATIONAL WEATHER SERVICE MILWAUKEE/SULLIVAN WI
700 PM CDT WED JUL 27 2016

NOTE: "FAIR" INDICATES FEW OR NO CLOUDS BELOW 12,000 FEET WITH NO
SIGNIFICANT WEATHER AND/OR OBSTRUCTIONS TO VISIBILITY.

WIZ001-002-006>008-014>016-023>028-280100-
NORTHWEST WISCONSIN

CITY           SKY/WX    TMP DP  RH WIND       PRES   REMARKS
SUPERIOR ARPT  CLOUDY    62  60  94 NE9       30.01F
ASHLAND        CLOUDY    64  62  93 N8        30.01F
6HR MIN TEMP:  63; 6HR MAX TEMP:  66; 6HR PCP:  0.09;

HAYWARD        CLOUDY    65  63  93 NE7       29.99S
6HR MIN TEMP:  64; 6HR MAX TEMP:  72; 6HR PCP:  0.52;

SIREN          CLOUDY    66  64  94 CALM      29.97S
CUMBERLAND     LGT RAIN  64  63  94 E7        29.97R
RICE LAKE      LGT RAIN  66  64  93 NE5       29.98R
CHETEK         LGT RAIN  66  65  96 E6        29.97R
LADYSMITH      RAIN      66  64  94 E3        30.02R
EAU CLAIRE     RAIN      68  67  96 NE6       29.95R FOG
6HR MIN TEMP:  68; 6HR MAX TEMP:  83; 6HR PCP:  0.28;

MENOMONIE      RAIN      67  67  99 W3        29.94F
NEW RICHMOND   CLOUDY    70  67  90 N6        29.95S
OSCEOLA        CLOUDY    69  69 100 N5        29.97F
$$

WIZ003>005-009-010-017-018-280100-
NORTH CENTRAL WISCONSIN

CITY           SKY/WX    TMP DP  RH WIND       PRES   REMARKS
MANITOWISH WTR LGT RAIN  65  65 100 NE7       30.01S
ARBOR VITAE    RAIN      72  70  94 NE5       30.01F
WOODRUFF       RAIN      72  70  94 NE5       30.01F
RHINELANDER    RAIN      69  67  93 CALM      30.01S
6HR MIN TEMP:  69; 6HR MAX TEMP:  73; 6HR PCP:  0.02;

EAGLE RIVER    LGT RAIN  69  67  94 NE8       30.00S
LAND O LAKES   RAIN      67  65  93 CALM      30.02S
PHILLIPS       RAIN      65  65 100 CALM      30.02R
6HR MIN TEMP:  65; 6HR MAX TEMP:  70; 6HR PCP:  0.24;

TOMAHAWK       RAIN      69  65  89 CALM      30.02R
MEDFORD        TSTM      63  63 100 NW13G21   29.99S
MERRILL        TSTM      64  60  89 SW7G28    30.02R
$$

WIZ029-030-035-036-043>047-280100-
CENTRAL WISCONSIN

CITY           SKY/WX    TMP DP  RH WIND       PRES   REMARKS
WAUSAU         TSTM      67  65  93 NE6       29.95F
6HR MIN TEMP:  67; 6HR MAX TEMP:  81; 6HR PCP:  0.24;

MOSINEE        NOT AVBL
MARSHFIELD     LGT RAIN  67  62  84 SE8       29.96S
6HR MIN TEMP:  67; 6HR MAX TEMP:  83; 6HR PCP:  0.28;

STEVENS POINT  CLOUDY    73  68  84 CALM      29.98R
WAUPACA        PTSUNNY   78  68  71 CALM      29.96S HX  80
WAUTOMA        CLOUDY    75  70  84 CALM      29.95F
6HR MIN TEMP:  69; 6HR MAX TEMP:  77;

WISC RAPIDS    CLOUDY    68  64  87 NE8       29.97S
6HR MIN TEMP:  67; 6HR MAX TEMP:  83; 6HR PCP:  0.43;

CAMP DOUGLAS   NOT AVBL
$$

WIZ011>013-019>022-031-037>040-048>050-280100-
NORTHEAST WISCONSIN

CITY           SKY/WX    TMP DP  RH WIND       PRES   REMARKS
ANTIGO         CLOUDY    71  68  90 CALM      30.00R
SHAWANO        CLOUDY    77  69  75 E5        29.96S
OCONTO         CLOUDY    74  73  94 CALM      29.94F
STURGEON BAY   MOSUNNY   74  68  81 NE5       29.96F
6HR MIN TEMP:  74; 6HR MAX TEMP:  79;

GREEN BAY      PTSUNNY   75  66  73 NE10      29.95S
6HR MIN TEMP:  73; 6HR MAX TEMP:  80; 6HR PCP:  0.01;

MANITOWOC      NOT AVBL
APPLETON       PTSUNNY   75  61  60 VRB5      29.94F
CLINTONVILLE   CLOUDY    77  64  65 CALM      29.95S
OSHKOSH        MOSUNNY   77  67  71 CALM      29.93F
6HR MIN TEMP:  73; 6HR MAX TEMP:  78; 6HR PCP: TRACE;

$$

WIZ032>034-041-042-053>061-280100-
SOUTHWEST WISCONSIN

CITY           SKY/WX    TMP DP  RH WIND       PRES   REMARKS
LA CROSSE      CLOUDY    82  67  60 W8        29.92R HX  84
6HR MIN TEMP:  82; 6HR MAX TEMP:  86;

SPARTA         CLOUDY    79  69  70 W3        29.94R HX  82
VIROQUA        CLOUDY    79  66  63 SW6       29.95S HX  81
BOSCOBEL       CLOUDY    82  67  60 W6        29.93R HX  84
6HR MIN TEMP:  82; 6HR MAX TEMP:  89;

PRAIRIE DU CHI CLOUDY    81  63  54 SW3       29.92R HX  82
PLATTEVILLE    CLOUDY    80  70  70 SW3       29.94S HX  84
$$

WIZ056-057-062-063-064-067-068-280100-
SOUTH CENTRAL WISCONSIN

CITY           SKY/WX    TMP DP  RH WIND       PRES   REMARKS
REEDSBURG      PTSUNNY   81  72  73 E5        29.93R HX  85
BARABOO/DELLS  CLOUDY    78  69  72 NE5       29.93S HX  80
LONE ROCK      NOT AVBL
MINERAL POINT  MOSUNNY   81  68  65 SW3       29.94S HX  83
MADISON        PTSUNNY   80  69  69 E7        29.92F HX  83
6HR MIN TEMP:  80; 6HR MAX TEMP:  88;

MIDDLETON      SUNNY     81  69  68 E5        29.92F HX  84
WATERTOWN      SUNNY     79  67  66 E9        29.92F HX  81
MONROE         MOSUNNY   82  64  54 S3        29.93F HX  84
JANESVILLE     PTSUNNY   84  61  45 W3        29.91F HX  84
$$

WIZ051-052-058>065-066-070>072-280100-
SOUTHEAST WISCONSIN

CITY           SKY/WX    TMP DP  RH WIND       PRES   REMARKS
MILWAUKEE      PTSUNNY   78  66  66 NE10      29.94F HX  80
6HR MIN TEMP:  75; 6HR MAX TEMP:  89;

WAUKESHA       SUNNY     77  64  65 E7        29.95F
MILWAUKEE/TIMM SUNNY     79  61  53 E9        29.95F HX  80
RACINE         SUNNY     75  66  73 NE7       29.96F
6HR MIN TEMP:  74; 6HR MAX TEMP:  86;

BURLINGTON     SUNNY     80  67  64 NE8       29.94S HX  82
KENOSHA        SUNNY     79  68  69 NE8       29.94S HX  81
6HR MIN TEMP:  79; 6HR MAX TEMP:  88;

FOND DU LAC    CLOUDY    76  68  76 S6        29.93F
6HR MIN TEMP:  72; 6HR MAX TEMP:  80; 6HR PCP:  0.09;

SHEBOYGAN      CLOUDY    72  68  87 SE6       29.95R
6HR MIN TEMP:  67; 6HR MAX TEMP:  77; 6HR PCP:  1.06;

WEST BEND      CLOUDY    75  68  78 S3        29.94F
JUNEAU         CLOUDY    77  66  67 E6        29.95F
$$

LSZ147-162-280100-
LAKE SUPERIOR

STATION/POSITION TIME  TEMP    WIND        PRES    WAVE
                       AIR SEA DIR/SP/G            HT/PER
                 (UTC) (F)     (DEG/KT/KT) (MB)    (FT/S)
W MID LAKE BUOY  2250   62 60  110/  8/ 10 1015.5F   2/ 4
DEVILS ISLAND    2300   62      90/  8/  8 1016.7F
PORT WING        2210   65      30/ 11/ 12 1016.6
SAXON HARBOR     2300   67      60/ 12/ 13 1015.6F
$$

LMZ867-665-643>646-280100-
LAKE MICHIGAN

STATION/POSITION TIME  TEMP    WIND        PRES    WAVE
                       AIR SEA DIR/SP/G            HT/PER
                 (UTC) (F)     (DEG/KT/KT) (MB)    (FT/S)
CHAMBERS ISLAND  2300   73      CALM  /  2 1014.6F
S GREEN BAY BUOY 2300   74 75   20/  2/  2   N/A
N MID LAKE BUOY  2250   71 71  260/  6/  6 1014.1R   0
NORTHPORT PIER   2300   74     290/  2/  3 1014.6S
SISTER BAY       2321   75        CALM       N/A
ALGOMA LAKESHORE 2328           60/  4/  5   N/A
KEWAUNEE LAKESHO 2300   68                   N/A
SHEBOYGAN LAKESH 2300   70      40/  5/  5 1013.9F
PORT WASHINGTON  2340   71      70/  1/  3 1014.6F
ATWATER BUOY     2300   68 62   80/  8/ 10 1015.5F
MILWAUKEE LAKESH 2310   69      30/  3/  4   N/A
S MID LAKE BUOY  2250   77 78   40/  6/ 10 1013.4F   0
KENOSHA   LAKESH 2300   67      10/  9/ 14 1013.2F
$$

TC  - TEMPERATURE IN CELSIUS
VSB - VISIBILITY IN STATUTE MILES
WCI - WIND CHILL INDEX
HX  - HEAT INDEX





USA.gov is the U.S. government's official web portal to all federal, state and local government web resources and services.